Location: Avoca
(45.7167°N, 74.7000°W)
Time: 20:41:24
(UTC+00:00)

BlueWalker 3 - Pass Details

Date: 01 December 2022
Orbit: 499 x 517 km, 53.2° (Epoch: 04 February)

Event Time Altitude Azimuth Distance (km) Brightness Sun altitude
Rises 22:41:17 0° 282° (WNW) 2,628 6.7 -14.4°
Reaches altitude 10° 22:43:44 10° 295° (WNW) 1,738 5.4 -14.8°
Maximum altitude 22:47:08 27° 355° (N) 1,004 3.3 -15.3°
Enters shadow 22:48:36 21° 31° (NNE) 1,174 3.4 -15.6°
